Regional Weather Roundup
Issued by NWS

Home | Current Version | Previous Version | Graphics & Text | Print | Product List | Glossary On
Versions: 1 2 3 4 5 6 7 8 9 10 11 12 13 14 15 16 17 18 19 20 21 22 23 24 25 26 27 28 29 30 31 32 33 34 35 36 37 38 39 40 41 42 43 44 45 46 47 48 49 50
000
ASUS43 KMPX 250801
RWRMN
WEATHER ROUNDUP FOR MINNESOTA
NATIONAL WEATHER SERVICE TWIN CITIES/CHANHASSEN MN
300 AM CDT FRI JUL 25 2014


NOTE: "FAIR" INDICATES FEW OR NO CLOUDS BELOW 12,000 FEET WITH NO
SIGNIFICANT WEATHER AND/OR OBSTRUCTIONS TO VISIBILITY. N/A MEANS
CURRENT SKY AND/OR WEATHER CONDITIONS ARE NOT AVAILABLE.

MNZ060>063-068>070-250900-
   Twin Cities Metro

CITY           SKY/WX    TMP DP  RH WIND       PRES   REMARKS
TWIN CITIES    CLOUDY    68  59  73 SE10      29.89R
ST PAUL        CLOUDY    68  59  73 SE13      29.89R
CRYSTAL        CLOUDY    70  57  63 S10       29.88R
BLAINE         CLOUDY    70  61  73 SE10      29.88R
LAKEVILLE      CLOUDY    64  57  77 S7        29.89R
EDEN PRAIRIE   CLOUDY    68  59  73 S12       29.88R
SOUTH ST PAUL  CLOUDY    68  58  69 SE7       29.89R
LAKE ELMO      CLOUDY    66  61  82 S7        29.91R
$$
MNZ001>005-007-008-013>017-022>024-027-028-250900-
   Northwest Minnesota

CITY           SKY/WX    TMP DP  RH WIND       PRES   REMARKS
BEMIDJI        DRIZZLE   66  61  82 S9        29.83R
HALLOCK        MOCLDY    64  63  94 SE6       29.74F
ROSEAU         MOCLDY    63  57  82 E5        29.80F
WARROAD        PTCLDY    63  59  88 E6        29.80F
THIEF RVR FALL CLOUDY    66  61  82 SE8       29.80F
CROOKSTON      CLOUDY    68  63  83 SE7       29.78F
FOSSTON        LGT RAIN  64  55  72 SE3       29.81S
DETROIT LAKES  MOCLDY    68  61  77 SE15G21   29.81S
MOORHEAD       CLOUDY    70  64  83 SE9       29.76F
PARK RAPIDS    LGT RAIN  67  61  81 S13       29.83S
$$
MNZ006-009>011-018-025>026-250900-
   North Central Minnesota

CITY           SKY/WX    TMP DP  RH WIND       PRES   REMARKS
BAUDETTE       CLOUDY    64  58  80 E3        29.83F
FLAG ISLAND    CLOUDY    70  59  68 S5        29.81F
INTL FALLS     CLOUDY    59  57  93 CALM      29.83F
WASKISH        CLOUDY    61  59  94 CALM      29.81S
BIG FORK       MOCLDY    61  59  94 E2        29.84F
LONGVILLE      CLOUDY    66  61  82 S6        29.84S
GRAND RAPIDS   CLOUDY    63  57  82 SE3       29.85S
CRANE LAKE     MOCLDY    55  54  94 CALM      29.85F
ORR            CLOUDY    61  55  82 CALM      29.82F
COOK           CLOUDY    59  57  94 CALM      29.85F
$$
MNZ012-019>021-037-250900-
   Northeast Minnesota

CITY           SKY/WX    TMP DP  RH WIND       PRES   REMARKS
DULUTH         MOCLDY    62  56  80 E7        29.87F
ELY            PTCLDY    55  54  94 CALM      29.87F
HIBBING        MOCLDY    61  58  90 E5        29.86F
EVELETH        CLOUDY    59  55  88 CALM      29.88F
DULUTH HARBOR  MOCLDY    59  55  88 NE8       29.87F
TWO HARBORS    LGT RAIN  61  55  82 CALM      29.86F
SILVER BAY     PTCLDY    55  55 100 CALM      29.86F
GRAND MARAIS     N/A     53  50  89 CALM      29.88F
G MARAIS ARPRT PTCLDY    48  45  87 CALM      29.92F
$$
MNZ029>031-032-039>041-046>048-054>057-064-250900-
   West Central Minnesota

CITY           SKY/WX    TMP DP  RH WIND       PRES   REMARKS
FERGUS FALLS   DRIZZLE   66  59  77 SE13      29.78S
WHEATON        CLOUDY    63  61  94 S8        29.80R
MORRIS         TSTM      64  63  94 S20       29.77F
ALEXANDRIA     CLOUDY    64  60  87 SE9       29.84R
ELBOW LAKE     LGT RAIN  64  61  88 SE8       29.82R
WADENA         CLOUDY    64  57  77 SE9       29.82S
GLENWOOD       CLOUDY    64  61  88 SE10      29.83R
APPLETON       TSTM      64  61  88 SE9G18    29.81R
BENSON         TSTM      64  61  88 SW10      29.86R
ORTONVILLE     TSTM      64  61  88 SE14      29.77F
MADISON        TSTM      66  63  88 E15       29.78F
WILLMAR        MOCLDY    66  61  82 SE15      29.81F
$$
MNZ033>034-036-042>043-049>051-058-059-250900-
   Central Minnesota

CITY           SKY/WX    TMP DP  RH WIND       PRES   REMARKS
ST CLOUD       CLOUDY    67  60  78 SE7       29.85R
SAUK CENTRE    CLOUDY    63  59  87 E7        29.83S
PAYNESVILLE    CLOUDY    64  59  84 E13       29.82F
AITKIN         CLOUDY    70  63  78 S6        29.83F
PINE RIVER     CLOUDY    66  61  82 S6        29.88S
BRAINERD       CLOUDY    65  59  81 S7        29.86R
STAPLES        CLOUDY    64  57  77 SE10      29.84S
LONG PRAIRIE   CLOUDY    63  59  88 E7        29.84S
LITTLE FALLS   CLOUDY    63  57  82 SE7       29.86R
LITCHFIELD     CLOUDY    66  63  88 SE9G16    29.83S
BUFFALO        CLOUDY    67  58  72 SE8       29.87S
MAPLE LAKE     CLOUDY    68  61  78 SE7       29.87S
$$
MNZ037-044-045-052-053-250900-
   East Central Minnesota

CITY           SKY/WX    TMP DP  RH WIND       PRES   REMARKS
PRINCETON      PTCLDY    64  61  88 SE6       29.87R
MORA           CLOUDY    64  57  77 S3        29.87R
CAMBRIDGE      MOCLDY    70  57  64 S8        29.85R
RUSH CITY      CLOUDY    66  61  82 SE3       29.86S
MOOSE LAKE     MOCLDY    61  59  94 CALM      29.86R
HINCKLEY       CLOUDY    64  61  88 E3        29.86S
CLOQUET        MOCLDY    63  57  82 SE3       29.87S
MCGREGOR       CLOUDY    64  61  88 SE3       29.86R
$$
MNZ071>073-080-081-089-090-097-098-250900-
   Southwest Minnesota

CITY           SKY/WX    TMP DP  RH WIND       PRES   REMARKS
MONTEVIDEO     TSTM      66  61  82 SW7       29.86R
GRANITE FALLS  CLOUDY    65  60  82 SE5       29.84R THUNDER
CANBY          TSTM      64  62  94 E7        29.80R
MARSHALL       MOCLDY    70  61  73 W8        29.81R
REDWOOD FALLS  CLOUDY    66  62  87 SE14      29.79F
OLIVIA         MOCLDY    64  61  88 SE13      29.80F
PIPESTONE      MOCLDY    66  61  82 SE13      29.76R
WINDOM         CLOUDY    70  63  78 SE12G18   29.78S
WORTHINGTON    MOCLDY    64  61  88 SE15G26   29.79F
JACKSON        CLOUDY    64  63  94 S16G25    29.79F
TRACY          PTCLDY    69  62  79 S14G22    29.77S
SLAYTON        TSTM      63  62  96 SE22      29.78F
$$
MNZ065>067-074>077-082>085-091>093-250900-
   South Central Minnesota

CITY           SKY/WX    TMP DP  RH WIND       PRES   REMARKS
MANKATO        MOCLDY    68  57  68 SE14G22   29.86F
NEW ULM        MOCLDY    64  63  94 SE14      29.81F
ST JAMES       CLOUDY    57 N/A N/A E13       29.82F
FAIRMONT       CLOUDY    64  59  82 E13       29.81F
GLENCOE        MOCLDY    67  58  72 SE9       29.85F
FARIBAULT      MOCLDY    70  57  64 S10       29.90R
OWATONNA       MOCLDY    68  59  73 S14G21    29.91R
WASECA         MOCLDY    63  54  72 SE9G16    29.91F
ALBERT LEA     CLOUDY    66  61  82 S13G21    29.90F THUNDER
$$
MNZ078>079-086>088-094>096-250900-
   Southeast Minnesota

CITY           SKY/WX    TMP DP  RH WIND       PRES   REMARKS
ROCHESTER      MOCLDY    65  58  78 S13       29.94R
RED WING       CLOUDY    70  59  68 SE8       29.89R
STANTON        CLOUDY    68  59  73 S10       29.89R
DODGE CENTER   MOCLDY    64  61  88 S10       29.92S
WINONA         MOCLDY    66  59  77 SE5       29.93F
AUSTIN         CLOUDY    66  59  77 S12       29.92F
PRESTON        CLOUDY    63  61  93 S9G17     29.94S
$$
ABBREVIATIONS USED IN REMARKS
   TC - TEMPERATURES IN CELSIUS
  WCI - WIND CHILL INDEX
   HX - HEAT INDEX
  VSB - VISIBILITY
$$


USA.gov is the U.S. government's official web portal to all federal, state and local government web resources and services.